Torna al catalogo

COSMOS 660

AttivoMilitarePO
NORAD 7337·PAYLOAD·🇷🇺 Russia

Lanciato Jun 18, 1974 da Plesetsk Cosmodrome

Loading…

Prossimi Passaggi (prossime 24 ore)

TLE

AggiornatoSource: Space-Track

Epoca: Sep 14, 2026, 13:28 UTC

1 07337U 74044A   26257.56133827  .00006538  00000-0  25726-3 0  9993
2 07337  82.9387 191.6179 0428555  72.7110 292.0508 14.68666231654734

Traccia COSMOS 660 in tempo reale con AllMySat

Download on the App Store